Location: Newark
(46.9000°N, 28.3500°E)
Time: 20:47:42
(UTC+00:00)

Explorer 7 - Pass Details

Date: 29 August 2019
Orbit: 485 x 680 km, 50.3° (Epoch: 22 October)

Event Time Altitude Azimuth Distance (km) Brightness Sun altitude
Rises 06:43:33 0° 257° (WSW) 3,026 10.2 32.9°
Reaches altitude 10° 06:45:57 10° 260° (W) 2,104 9.5 33.3°
Maximum altitude 06:50:50 71° 344° (NNW) 698 7.7 34.0°
Drops below altitude 10° 06:55:31 10° 69° (ENE) 2,027 10.4 34.8°
Sets 06:57:48 0° 72° (ENE) 2,907 11.1 35.1°
